Location: DARK SKY Beskydy - Park tmavé oblohy, www.darkskybeskydy.cz
(49.4926°N, 18.5016°E)
Time: 11:45:34
(UTC+02:00)

A-11 Canister half - Pass Details

Date: 01 March 2024
Orbit: 1513 x 1687 km, 47.2° (Epoch: 12 April)

Event Time Altitude Azimuth Distance (km) Brightness Sun altitude
Rises 05:44:00 0° 286° (WNW) 4,925 - -7.9°
Exits shadow 05:46:35 - 283° (WNW) 4,132 10.6 -7.5°
Reaches altitude 10° 05:47:17 10° 282° (WNW) 3,921 10.5 -7.4°
Maximum altitude 05:56:51 52° 210° (SSW) 1,949 9.4 -5.9°
Drops below altitude 10° 06:06:04 10° 138° (SE) 3,785 11.9 -4.4°
Sets 06:09:12 0° 134° (SE) 4,744 12.6 -3.9°
